When you browse on this site, cookies collect data to enhance your experience and personalize the content and advertising you see.
Visit our Privacy Policy to learn more. By continuing to use the site, you agree to this use of cookies and data.
  • In Österreich
  • Länderverzeichnis
  • Für 7 Tage
  • Wassertemperatur
  • Wetterkarte
  • News
  • Widgets
  • user-avatar
    Anmelden

    Stündliche Wetter Santiago Tulantepec

    Heute, 23 Oktober, Mittwoch

    Zeit Temperatur Niederschläge Wind Luftdruck Luftfeuchtigkeit
    00:00 +14°C° 1.3 mm 1 m/S 585 mmHg 96%
    01:00 +14°C° 1.3 mm 1 m/S 585 mmHg 96%
    02:00 +14°C° 1.3 mm 1 m/S 585 mmHg 96%
    03:00 +13°C° 0.2 mm 1 m/S 585 mmHg 96%
    04:00 +13°C° 0.2 mm 1 m/S 584 mmHg 96%
    05:00 +13°C° 0.2 mm 1 m/S 584 mmHg 96%
    06:00 +13°C° 0 mm 1 m/S 585 mmHg 93%
    07:00 +14°C° 0 mm 1 m/S 585 mmHg 89%
    08:00 +15°C° 0 mm 1 m/S 586 mmHg 85%
    09:00 +16°C° 0 mm 2 m/S 586 mmHg 80%
    10:00 +17°C° 0 mm 2 m/S 586 mmHg 76%
    11:00 +18°C° 0 mm 2 m/S 586 mmHg 71%
    12:00 +18°C° 0.1 mm 3 m/S 586 mmHg 72%
    13:00 +18°C° 0.1 mm 3 m/S 585 mmHg 74%
    14:00 +18°C° 0.1 mm 3 m/S 584 mmHg 76%
    15:00 +17°C° 0.1 mm 3 m/S 584 mmHg 81%
    16:00 +16°C° 0.1 mm 2 m/S 583 mmHg 86%
    17:00 +14°C° 0.1 mm 2 m/S 583 mmHg 91%
    18:00 +14°C° 0 mm 2 m/S 583 mmHg 92%
    19:00 +14°C° 0 mm 1 m/S 584 mmHg 93%
    20:00 +14°C° 0 mm 1 m/S 584 mmHg 94%
    21:00 +14°C° 0 mm 1 m/S 584 mmHg 94%
    22:00 +13°C° 0 mm 1 m/S 584 mmHg 94%
    23:00 +13°C° 0 mm 1 m/S 583 mmHg 94%

    Morgen, 24 Oktober, Donnerstag

    Zeit Temperatur Niederschläge Wind Luftdruck Luftfeuchtigkeit
    00:00 +12°C° 0 mm 0 m/S 583 mmHg 94%
    01:00 +11°C° 0 mm 0 m/S 582 mmHg 94%
    02:00 +11°C° 0 mm 0 m/S 582 mmHg 94%
    03:00 +11°C° 0 mm 0 m/S 582 mmHg 94%
    04:00 +11°C° 0 mm 0 m/S 582 mmHg 94%
    05:00 +10°C° 0 mm 0 m/S 582 mmHg 94%
    06:00 +12°C° 0 mm 0 m/S 583 mmHg 87%
    07:00 +15°C° 0 mm 1 m/S 584 mmHg 80%
    08:00 +18°C° 0 mm 1 m/S 585 mmHg 73%
    09:00 +19°C° 0.1 mm 1 m/S 585 mmHg 71%
    10:00 +19°C° 0.1 mm 2 m/S 585 mmHg 69%
    11:00 +20°C° 0.1 mm 2 m/S 585 mmHg 66%
    12:00 +20°C° 0.5 mm 2 m/S 585 mmHg 70%
    13:00 +20°C° 0.5 mm 2 m/S 584 mmHg 73%
    14:00 +19°C° 0.5 mm 2 m/S 583 mmHg 77%
    15:00 +18°C° 0.3 mm 2 m/S 583 mmHg 82%
    16:00 +17°C° 0.3 mm 2 m/S 582 mmHg 88%
    17:00 +16°C° 0.3 mm 2 m/S 582 mmHg 94%
    18:00 +16°C° 0.1 mm 1 m/S 582 mmHg 94%
    19:00 +15°C° 0.1 mm 1 m/S 583 mmHg 95%
    20:00 +15°C° 0.1 mm 1 m/S 583 mmHg 95%
    21:00 +15°C° 0 mm 1 m/S 583 mmHg 95%
    22:00 +14°C° 0 mm 1 m/S 583 mmHg 94%
    23:00 +14°C° 0 mm 1 m/S 582 mmHg 94%

    übermorgen, 25 Oktober, Freitag

    Zeit Temperatur Niederschläge Wind Luftdruck Luftfeuchtigkeit
    00:00 +12°C° 0 mm 0 m/S 582 mmHg 94%
    01:00 +12°C° 0 mm 0 m/S 582 mmHg 93%
    02:00 +12°C° 0 mm 0 m/S 582 mmHg 93%
    03:00 +12°C° 0 mm 0 m/S 582 mmHg 93%
    04:00 +11°C° 0 mm 0 m/S 582 mmHg 94%
    05:00 +11°C° 0 mm 0 m/S 582 mmHg 94%
    06:00 +14°C° 0 mm 1 m/S 583 mmHg 90%
    07:00 +15°C° 0 mm 1 m/S 584 mmHg 86%
    08:00 +18°C° 0 mm 1 m/S 586 mmHg 82%
    09:00 +17°C° 0.2 mm 2 m/S 586 mmHg 79%
    10:00 +18°C° 0.2 mm 3 m/S 586 mmHg 77%
    11:00 +19°C° 0.2 mm 4 m/S 586 mmHg 75%
    12:00 +18°C° 0.8 mm 4 m/S 585 mmHg 79%
    13:00 +17°C° 0.8 mm 4 m/S 584 mmHg 83%
    14:00 +15°C° 0.8 mm 4 m/S 584 mmHg 87%
    15:00 +14°C° 0.4 mm 4 m/S 584 mmHg 90%
    16:00 +13°C° 0.4 mm 3 m/S 583 mmHg 93%
    17:00 +12°C° 0.4 mm 3 m/S 583 mmHg 95%
    18:00 +11°C° 0.1 mm 3 m/S 584 mmHg 95%
    19:00 +11°C° 0.1 mm 3 m/S 584 mmHg 95%
    20:00 +12°C° 0.1 mm 2 m/S 585 mmHg 95%
    21:00 +12°C° 0.1 mm 2 m/S 585 mmHg 95%
    22:00 +12°C° 0.1 mm 1 m/S 585 mmHg 95%
    23:00 +12°C° 0.1 mm 1 m/S 585 mmHg 96%

    26 Oktober, Samstag

    Zeit Temperatur Niederschläge Wind Luftdruck Luftfeuchtigkeit
    00:00 +12°C° 0.5 mm 1 m/S 585 mmHg 96%
    01:00 +12°C° 0.5 mm 1 m/S 584 mmHg 96%
    02:00 +12°C° 0.5 mm 2 m/S 584 mmHg 96%
    03:00 +12°C° 0.1 mm 1 m/S 584 mmHg 96%
    04:00 +12°C° 0.1 mm 1 m/S 584 mmHg 96%
    05:00 +12°C° 0.1 mm 1 m/S 584 mmHg 96%
    06:00 +13°C° 0 mm 1 m/S 585 mmHg 92%
    07:00 +12°C° 0 mm 0 m/S 585 mmHg 88%
    08:00 +13°C° 0 mm 0 m/S 586 mmHg 84%
    09:00 +16°C° 0 mm 1 m/S 586 mmHg 80%
    10:00 +18°C° 0 mm 1 m/S 586 mmHg 75%
    11:00 +19°C° 0 mm 1 m/S 586 mmHg 71%
    12:00 +19°C° 0.2 mm 1 m/S 585 mmHg 73%
    13:00 +19°C° 0.2 mm 1 m/S 585 mmHg 75%
    14:00 +17°C° 0.2 mm 2 m/S 584 mmHg 76%
    15:00 +16°C° 0.7 mm 2 m/S 584 mmHg 82%
    16:00 +15°C° 0.7 mm 1 m/S 583 mmHg 87%
    17:00 +14°C° 0.7 mm 1 m/S 583 mmHg 92%
    18:00 +14°C° 0.3 mm 1 m/S 583 mmHg 92%
    19:00 +14°C° 0.3 mm 1 m/S 584 mmHg 93%
    20:00 +13°C° 0.3 mm 1 m/S 584 mmHg 93%
    21:00 +14°C° 0.1 mm 1 m/S 584 mmHg 92%
    22:00 +14°C° 0.1 mm 1 m/S 584 mmHg 92%
    23:00 +14°C° 0.1 mm 1 m/S 584 mmHg 91%

    27 Oktober, Sonntag

    Zeit Temperatur Niederschläge Wind Luftdruck Luftfeuchtigkeit
    00:00 +14°C° 0 mm 1 m/S 583 mmHg 91%
    01:00 +14°C° 0 mm 1 m/S 583 mmHg 91%
    02:00 +13°C° 0 mm 1 m/S 582 mmHg 91%
    03:00 +13°C° 0 mm 1 m/S 582 mmHg 90%
    04:00 +13°C° 0 mm 1 m/S 582 mmHg 89%
    05:00 +13°C° 0 mm 1 m/S 582 mmHg 89%
    06:00 +15°C° 0 mm 1 m/S 583 mmHg 82%
    07:00 +16°C° 0 mm 1 m/S 585 mmHg 75%
    08:00 +19°C° 0 mm 1 m/S 586 mmHg 69%
    09:00 +20°C° 0.1 mm 1 m/S 586 mmHg 66%
    10:00 +20°C° 0.1 mm 2 m/S 586 mmHg 63%
    11:00 +21°C° 0.1 mm 2 m/S 586 mmHg 61%
    12:00 +21°C° 0.8 mm 2 m/S 585 mmHg 65%
    13:00 +20°C° 0.8 mm 2 m/S 584 mmHg 70%
    14:00 +20°C° 0.8 mm 2 m/S 584 mmHg 74%
    15:00 +18°C° 0.5 mm 2 m/S 583 mmHg 80%
    16:00 +17°C° 0.5 mm 2 m/S 583 mmHg 86%
    17:00 +15°C° 0.5 mm 1 m/S 583 mmHg 92%
    18:00 +15°C° 0 mm 1 m/S 583 mmHg 91%
    19:00 +14°C° 0 mm 1 m/S 583 mmHg 90%
    20:00 +14°C° 0 mm 1 m/S 583 mmHg 89%
    21:00 +14°C° 0 mm 1 m/S 583 mmHg 87%
    22:00 +14°C° 0 mm 1 m/S 583 mmHg 85%
    23:00 +13°C° 0 mm 1 m/S 583 mmHg 82%

    28 Oktober, Montag

    Zeit Temperatur Niederschläge Wind Luftdruck Luftfeuchtigkeit
    00:00 +13°C° 0 mm 1 m/S 583 mmHg 81%
    01:00 +13°C° 0 mm 1 m/S 583 mmHg 80%
    02:00 +13°C° 0 mm 1 m/S 583 mmHg 79%
    03:00 +13°C° 0 mm 1 m/S 583 mmHg 78%
    04:00 +12°C° 0 mm 0 m/S 583 mmHg 76%
    05:00 +12°C° 0 mm 0 m/S 583 mmHg 75%
    06:00 +15°C° 0 mm 1 m/S 584 mmHg 70%
    07:00 +16°C° 0 mm 1 m/S 585 mmHg 65%
    08:00 +19°C° 0 mm 1 m/S 587 mmHg 60%
    09:00 +19°C° 0 mm 2 m/S 587 mmHg 58%
    10:00 +20°C° 0 mm 3 m/S 587 mmHg 56%
    11:00 +21°C° 0 mm 4 m/S 587 mmHg 55%
    12:00 +20°C° 0 mm 4 m/S 586 mmHg 60%
    13:00 +19°C° 0 mm 4 m/S 586 mmHg 66%
    14:00 +18°C° 0 mm 4 m/S 585 mmHg 71%
    15:00 +15°C° 0.1 mm 4 m/S 584 mmHg 78%
    16:00 +13°C° 0.1 mm 4 m/S 584 mmHg 86%
    17:00 +12°C° 0.1 mm 3 m/S 584 mmHg 93%
    18:00 +12°C° 0.2 mm 3 m/S 584 mmHg 93%
    19:00 +11°C° 0.2 mm 3 m/S 585 mmHg 93%
    20:00 +11°C° 0.2 mm 3 m/S 585 mmHg 92%
    21:00 +12°C° 0.2 mm 2 m/S 585 mmHg 93%
    22:00 +12°C° 0.2 mm 2 m/S 585 mmHg 94%
    23:00 +12°C° 0.2 mm 2 m/S 585 mmHg 94%

    29 Oktober, Dienstag

    Zeit Temperatur Niederschläge Wind Luftdruck Luftfeuchtigkeit
    00:00 +12°C° 0.2 mm 2 m/S 585 mmHg 94%
    01:00 +12°C° 0.2 mm 2 m/S 585 mmHg 95%
    02:00 +12°C° 0.2 mm 2 m/S 585 mmHg 95%
    03:00 +12°C° 0.1 mm 2 m/S 585 mmHg 95%
    04:00 +10°C° 0.1 mm 2 m/S 585 mmHg 95%
    05:00 +10°C° 0.1 mm 2 m/S 585 mmHg 95%
    06:00 +10°C° 0 mm 2 m/S 585 mmHg 94%
    07:00 +12°C° 0 mm 2 m/S 586 mmHg 93%
    08:00 +12°C° 0 mm 2 m/S 586 mmHg 91%
    09:00 +13°C° 0 mm 2 m/S 586 mmHg 88%
    10:00 +13°C° 0 mm 2 m/S 586 mmHg 85%
    11:00 +14°C° 0 mm 2 m/S 587 mmHg 82%
    12:00 +14°C° 0 mm 2 m/S 586 mmHg 81%
    13:00 +15°C° 0 mm 2 m/S 585 mmHg 81%
    14:00 +15°C° 0 mm 2 m/S 585 mmHg 81%
    15:00 +14°C° 0 mm 2 m/S 585 mmHg 84%
    16:00 +13°C° 0 mm 2 m/S 584 mmHg 88%
    17:00 +12°C° 0 mm 2 m/S 584 mmHg 92%
    18:00 +12°C° 0 mm 2 m/S 585 mmHg 92%
    19:00 +12°C° 0 mm 2 m/S 585 mmHg 93%
    20:00 +10°C° 0 mm 2 m/S 585 mmHg 94%
    21:00 +11°C° 0 mm 1 m/S 585 mmHg 94%
    22:00 +11°C° 0 mm 1 m/S 585 mmHg 93%
    23:00 +11°C° 0 mm 1 m/S 585 mmHg 93%
    Mehr zeigen